TimePST,TemperatureF,Dew PointF,Humidity,Sea Level PressureIn,VisibilityMPH,Wind Direction,Wind SpeedMPH,Gust SpeedMPH,PrecipitationIn,Events,Conditions,WindDirDegrees,DateUTC
12:00 AM,48.2,46.4,93,30.30,15.0,East,8.1,-,N/A,,Overcast,100,2013-11-14 08:00:00
1:00 AM,48.2,46.4,93,30.28,15.0,East,8.1,-,N/A,,Overcast,80,2013-11-14 09:00:00
2:00 AM,48.2,44.6,87,30.25,15.0,East,9.2,-,N/A,,Overcast,90,2013-11-14 10:00:00
3:00 AM,46.4,44.6,93,30.24,15.0,East,8.1,-,N/A,,Overcast,90,2013-11-14 11:00:00
4:00 AM,48,45,87,30.23,15,ENE,4.6,,,,Overcast,70,2013-11-14 12:00:00
4:00 AM,48.2,44.6,87,30.22,15.0,ENE,4.6,-,N/A,,Overcast,70,2013-11-14 12:00:00
4:56 AM,48.2,46.4,93,30.22,15.0,ENE,3.5,-,N/A,Rain,Light Rain,70,2013-11-14 12:56:00
5:00 AM,48.2,46.4,93,30.22,15.0,ENE,2.3,-,N/A,Rain,Light Rain,70,2013-11-14 13:00:00
5:24 AM,46.4,44.6,93,30.21,15.0,East,2.3,-,N/A,,Overcast,90,2013-11-14 13:24:00
5:47 AM,46.4,44.6,93,-9999,15.0,NW,2.3,-,N/A,,Overcast,310,2013-11-14 13:47:00
6:00 AM,46.4,44.6,93,-9999,15.0,NNW,2.3,-,N/A,,Overcast,340,2013-11-14 14:00:00
7:00 AM,46.4,46.4,100,30.19,15.0,Calm,Calm,-,N/A,,Overcast,0,2013-11-14 15:00:00
7:30 AM,48.2,44.6,87,30.18,15.0,SSW,3.5,-,N/A,,Overcast,210,2013-11-14 15:30:00
7:39 AM,46.4,46.4,100,30.18,15.0,SW,5.8,-,N/A,,Overcast,220,2013-11-14 15:39:00
7:48 AM,46.4,46.4,100,30.18,15.0,SSW,4.6,-,N/A,,Overcast,200,2013-11-14 15:48:00
8:00 AM,48.2,46.4,93,30.18,15.0,SW,3.5,-,N/A,,Overcast,230,2013-11-14 16:00:00
8:14 AM,48.2,46.4,93,30.18,15.0,West,6.9,-,N/A,,Overcast,280,2013-11-14 16:14:00
8:17 AM,48.2,46.4,93,30.18,15.0,West,8.1,-,N/A,,Overcast,280,2013-11-14 16:17:00
9:00 AM,48.2,46.4,93,30.17,15.0,WNW,10.4,-,N/A,,Mostly Cloudy,290,2013-11-14 17:00:00
10:00 AM,49,45,82,30.16,15,WNW,18.4,,,,Partly Cloudy,290,2013-11-14 18:00:00
10:00 AM,48.2,44.6,87,30.16,15.0,WNW,19.6,-,N/A,,Mostly Cloudy,290,2013-11-14 18:00:00
11:00 AM,50.0,46.4,87,30.15,15.0,WNW,15.0,-,N/A,,Scattered Clouds,300,2013-11-14 19:00:00
12:00 PM,50.0,46.4,87,30.14,20.0,West,13.8,-,N/A,,Scattered Clouds,280,2013-11-14 20:00:00
1:00 PM,50.0,44.6,82,30.12,20.0,West,17.3,-,N/A,,Scattered Clouds,280,2013-11-14 21:00:00
2:00 PM,50.0,44.6,82,30.10,20.0,West,18.4,24.2,N/A,,Partly Cloudy,280,2013-11-14 22:00:00
3:00 PM,48.2,42.8,82,30.10,20.0,West,21.9,-,N/A,,Partly Cloudy,280,2013-11-14 23:00:00
4:00 PM,48,42,75,30.09,19,WNW,17.3,,,,Scattered Clouds,290,2013-11-15 00:00:00
4:00 PM,48.2,42.8,82,30.09,20.0,WNW,16.1,24.2,N/A,,Partly Cloudy,290,2013-11-15 00:00:00
5:00 PM,46.4,41.0,81,30.08,20.0,West,18.4,-,N/A,,Scattered Clouds,280,2013-11-15 01:00:00
6:00 PM,46.4,41.0,81,30.07,20.0,West,18.4,24.2,N/A,,Scattered Clouds,280,2013-11-15 02:00:00
7:00 PM,46.4,41.0,81,30.07,20.0,WNW,11.5,-,N/A,,Mostly Cloudy,290,2013-11-15 03:00:00
8:00 PM,48.2,42.8,82,30.07,20.0,West,16.1,-,N/A,,Overcast,270,2013-11-15 04:00:00
9:00 PM,46.4,41.0,81,30.06,20.0,West,13.8,-,N/A,,Mostly Cloudy,270,2013-11-15 05:00:00
10:00 PM,46,40,73,30.06,19,West,10.4,,,,Mostly Cloudy,270,2013-11-15 06:00:00
10:00 PM,46.4,41.0,81,30.06,20.0,West,11.5,-,N/A,,Mostly Cloudy,280,2013-11-15 06:00:00
11:00 PM,46.4,39.2,76,30.05,20.0,WNW,12.7,-,N/A,,Mostly Cloudy,300,2013-11-15 07:00:00